User: anonymous   Login
Location: *
(44.1392°N, 4.8079°E)
Time: 20:13:50
(UTC+00:00)
Language:

Cosmos 1862 - Orbit

View from above orbital plane
View from above orbital plane
View from above satellite
View from above satellite

Ground track
Ground track

The orbit data is extracted from the following two-line orbital elements,

1 18152U 87055A   21271.53969443  .00000662  00000-0  42533-4 0  9993
2 18152  82.4986 211.6907 0011591 270.4761  89.5138 15.06776293843999
Epoch (UTC): 28 September 2021 12:57:09
Eccentricity: 0.0011591
inclination: 82.4986°
perigee height: 538 km
apogee height: 554 km
right ascension of ascending node: 211.6907°
argument of perigee: 270.4761°
revolutions per day: 15.06776293
mean anomaly at epoch: 89.5138°
orbit number at epoch: 84399

The dashed part of the orbit path shows where the satellite is in the earth's shadow,  

DLR